1998-067LP

Last updated on May 25, 2017, 12:15 a.m. UTC

1 42706U 98067LP  17144.45669035  .00011396  00000-0  17324-3 0  9994
2 42706  51.6410 156.5387 0000614 311.2600 199.5633 15.55052963  1151
UTC
Height (km)
Latitude
Longitude
Inclination
Orbital Period
UTC large
Height (km)
Speed (km/s)
/
Latitude / Longitude
Inclination (degrees)
Orbital Period (minutes)
Azimuth
Elevation
Range (km)
Doppler Factor
iOS Compass Heading
iOS Angle